Flag for U.S.A. Weather past 2 weeks in Lansing, Michigan, U.S.A.

Now
35 °F

Overcast.


Feels Like: 26 °F
Forecast: 20 / 30 °F
Wind: 14 mph from West

Location: Capital City Airport

Current Time: Mar 26, 2015 at 8:41:56 PM

Latest Report: Mar 26, 2015 at 7:53 PM


Visibility: 10 mi

Pressure: 29.95 "Hg

Humidity: 61%

Dew point: 23 °F

Location of LansingLocation

Historic Weather in Lansing — Graph

°F

Lansing temperature yesterday

Maximum temperature yesterday: 47 °F (at 4:53 PM)
Minimum temperature yesterday: 29 °F (at 1:53 AM)
Average temperature yesterday: 38 °F

Past Weeks' High & Low Weather Summary

 TemperatureHumidityPressure
High69 °F (Mar 16, 2:53 PM)97% (Mar 14, 1:53 AM)30.61 "Hg (Mar 14, 1:53 AM)
Low14 °F (Mar 24, 7:53 AM)24% (Mar 24, 1:53 PM)29.72 "Hg (Mar 16, 7:53 PM)
Average38 °F57%30.17 "Hg
* Reported Mar 11 6:53 PM — Mar 26 6:53 PM, Lansing, Weather by CustomWeather, © 2015

Note: Actual official high and low records may vary slightly from our data, if they occured in-between our weather recording intervals... More about our weather records

Advertising

Lansing weather history for previous 24 hours

 ConditionsComfort  
Time TempWeatherWind HumidityBarometerVisibility
6:53 PM
Thu, Mar 26
36 °FOvercast.14 mph62%29.94 "Hg10 mi
5:53 PM38 °FOvercast.12 mph55%29.92 "Hg10 mi
4:53 PM39 °FOvercast.12 mph50%29.88 "Hg10 mi
3:53 PM39 °FOvercast.14 mph53%29.88 "Hg10 mi
2:53 PM39 °FOvercast.17 mph55%29.88 "Hg10 mi
1:53 PM40 °FMostly cloudy.17 mph55%29.89 "Hg10 mi
12:53 PM40 °FOvercast.13 mph55%29.89 "Hg10 mi
11:53 AM39 °FOvercast.10 mph57%29.90 "Hg10 mi
10:53 AM38 °FOvercast.13 mph65%29.91 "Hg10 mi
9:53 AM37 °FOvercast.12 mph70%29.93 "Hg10 mi
8:53 AM35 °FOvercast.7 mph78%29.92 "Hg9 mi
7:53 AM34 °FOvercast.6 mph85%29.92 "Hg8 mi
6:53 AM34 °FMostly cloudy.5 mph85%29.91 "Hg9 mi
5:53 AM35 °FOvercast.6 mph82%29.91 "Hg8 mi
4:53 AM35 °FClear.6 mph82%29.91 "Hg7 mi
3:53 AM36 °FOvercast.7 mph82%29.95 "Hg8 mi
2:53 AM38 °FOvercast.10 mph79%30.00 "Hg8 mi
1:53 AM38 °FOvercast.15 mph79%29.99 "Hg8 mi
12:53 AM38 °FOvercast.12 mph79%29.99 "Hg9 mi
11:53 PM
Wed, Mar 25
38 °FOvercast.12 mph76%30.00 "Hg10 mi
10:53 PM39 °FOvercast.13 mph73%30.01 "Hg10 mi
9:53 PM39 °FOvercast.16 mph76%30.00 "Hg8 mi
9:04 PM39 °FOvercast.21 mph79%29.98 "Hg7 mi
8:53 PM39 °FOvercast.17 mph79%30.00 "Hg7 mi
Weather by CustomWeather, © 2015

See weather overviewHow to use our weather pages